CDT,Max TemperatureF,Mean TemperatureF,Min TemperatureF,Max Dew PointF,MeanDew PointF,Min DewpointF,Max Humidity, Mean Humidity, Min Humidity, Max Sea Level PressureIn, Mean Sea Level PressureIn, Min Sea Level PressureIn, Max VisibilityMiles, Mean VisibilityMiles, Min VisibilityMiles, Max Wind SpeedMPH, Mean Wind SpeedMPH, Max Gust SpeedMPH,PrecipitationIn, CloudCover, Events, WindDirDegrees
2010-10-1,60,45,33,47,37,32,97,75,47,30.37,30.19,30.09,10,10,10,16,4,25,0.06,4,Rain,351
2010-10-2,54,42,28,34,31,27,96,74,45,30.51,30.45,30.37,10,10,10,10,5,16,0.01,1,,346
2010-10-3,60,42,25,34,29,22,92,67,32,30.48,30.40,30.32,10,10,10,12,2,18,0.00,0,,189
2010-10-4,66,46,26,37,32,24,96,64,28,30.35,30.29,30.21,10,10,10,13,3,21,0.00,0,,189
2010-10-5,73,52,30,43,38,29,96,63,34,30.27,30.20,30.09,10,10,10,14,4,26,0.00,0,,156
2010-10-6,66,56,46,50,39,33,83,53,29,30.19,30.10,30.04,10,10,10,20,7,30,0.00,0,,301
2010-10-7,75,54,36,45,39,33,93,57,32,30.14,30.06,29.96,10,10,10,10,5,17,0.00,0,,271
2010-10-8,80,59,39,54,44,37,96,69,30,29.97,29.92,29.87,10,10,10,5,0,,0.00,0,,300
2010-10-9,75,58,42,52,46,40,97,64,38,30.04,29.99,29.96,10,10,10,13,6,20,0.00,0,,122
2010-10-10,77,58,42,55,48,41,97,75,44,29.99,29.93,29.88,10,10,10,5,1,,0.00,1,Rain,327
2010-10-11,71,54,39,50,44,39,100,82,49,29.93,29.90,29.86,10,7,0,8,2,,0.00,0,Fog,143
2010-10-12,64,49,35,52,40,31,100,80,36,30.10,29.95,29.87,10,8,0,17,4,28,0.00,3,Fog,302
2010-10-13,63,46,30,37,30,27,96,65,26,30.20,30.15,30.11,10,10,10,16,3,23,0.00,0,Rain,285
2010-10-14,62,46,30,36,33,27,89,63,34,30.09,29.96,29.85,10,10,10,25,6,33,0.00,2,,314
2010-10-15,57,42,28,40,35,26,96,72,49,30.17,30.09,29.98,10,10,10,9,3,,0.00,2,,164
2010-10-16,59,44,30,39,30,25,96,61,27,30.10,29.99,29.89,10,10,10,20,5,30,0.00,0,,288
2010-10-17,54,40,27,33,27,23,89,62,33,30.18,30.14,30.09,10,10,10,15,6,,0.00,0,,288
2010-10-18,53,38,24,33,28,21,91,64,37,30.16,30.07,29.94,10,10,10,12,3,23,0.00,2,,263
2010-10-19,57,44,32,38,33,29,96,65,34,29.94,29.83,29.64,10,10,10,10,5,25,0.00,1,,244
2010-10-20,55,47,39,37,33,26,76,61,33,29.84,29.69,29.60,10,10,7,21,9,41,0.05,6,Rain,300
2010-10-21,50,38,26,34,28,23,93,70,39,30.01,29.95,29.84,10,10,8,16,10,24,0.02,4,Snow,304
2010-10-22,66,42,21,36,28,19,92,68,32,30.00,29.91,29.81,10,10,10,9,2,18,0.00,0,,225
2010-10-23,48,39,32,39,36,30,92,77,63,30.00,29.95,29.88,10,10,10,13,6,20,0.00,5,,70
2010-10-24,48,45,42,46,42,37,93,86,74,29.91,29.72,29.52,10,9,2,12,8,21,0.25,8,Rain,85
2010-10-25,55,50,46,52,48,45,100,94,88,29.49,29.32,29.09,10,6,2,16,7,22,0.13,8,Rain,136
2010-10-26,55,46,37,54,48,35,100,93,87,29.08,28.50,28.26,10,5,1,23,15,36,2.46,8,Rain-Snow,131
2010-10-27,42,38,34,39,35,30,100,90,81,29.66,29.02,28.48,10,8,2,24,12,33,0.22,8,Rain-Snow,267
2010-10-28,37,32,27,32,26,21,93,77,59,30.30,30.01,29.68,10,9,2,23,16,39,0.00,6,Rain-Snow,298
2010-10-29,41,30,19,26,22,17,92,76,46,30.28,30.11,29.87,10,10,10,6,2,,0.00,2,,186
2010-10-30,44,36,28,30,28,22,86,73,58,30.15,29.96,29.77,10,10,10,14,6,,0.00,4,,2
2010-10-31,44,33,23,31,26,21,93,81,53,30.36,30.26,30.14,10,10,10,5,1,,0.00,4,,210